Hourly Data Report for May 31, 2012

All times are specified in Local Standard Time (LST). Add 1 hour to adjust for Daylight Saving Time where and when it is observed.

OTTAWA INTL A
ONTARIO

45°19'00.000" N
75°40'00.000" W
114.90 m
6106001
71628
YOW

Download Data

Hourly Data (May 2012)
Hourly Data Report for May 31, 2012
Temp Definition
°C
Dew Point Temp Definition
°C
Rel Hum Definition
%
Wind Dir Definition
10's deg

Wind Spd Definition
km/h
Visibility Definition
km
Stn Press Definition
kPa
Hmdx Definition


Wind Chill Definition


Weather Definition


TIME
00:00 Legend Double Dagger 15.9 8.7 62 32 11 10.0 99.45     LegendNANA
01:00 Legend Double Dagger 14.9 8.7 66 33 20 10.0 99.49     Cloudy
02:00 Legend Double Dagger 13.9 9.2 73 34 17 10.0 99.49     LegendNANA
03:00 Legend Double Dagger 11.8 9.0 83 33 19 10.0 99.54     LegendNANA
04:00 Legend Double Dagger 10.9 8.3 84 33 21 10.0 99.63     Mainly Clear
05:00 Legend Double Dagger 10.0 7.3 83 32 19 10.0 99.73     LegendNANA
06:00 Legend Double Dagger 11.2 6.6 73 34 18 10.0 99.79     LegendNANA
07:00 Legend Double Dagger 12.3 6.4 67 33 23 10.0 99.85     Mainly Clear
08:00 Legend Double Dagger 13.4 6.8 64 33 22 10.0 99.92     LegendNANA
09:00 Legend Double Dagger 14.0 5.7 57 32 22 10.0 99.99     LegendNANA
10:00 Legend Double Dagger 14.8 5.7 54 32 22 10.0 100.00     Mainly Clear
11:00 Legend Double Dagger 14.9 4.4 49 33 24 10.0 100.01     LegendNANA
12:00 Legend Double Dagger 15.0 4.7 50 33 20 10.0 100.07     LegendNANA
13:00 Legend Double Dagger 16.5 4.3 44 29 18 10.0 100.05     Mostly Cloudy
14:00 Legend Double Dagger 15.8 4.0 45 30 13 10.0 100.06     LegendNANA
15:00 Legend Double Dagger 17.1 3.2 39 31 24 10.0 100.09     LegendNANA
16:00 Legend Double Dagger 17.3 2.6 37 31 10 10.0 100.06     Mostly Cloudy
17:00 Legend Double Dagger 17.0 3.1 39 30 15 10.0 100.10     LegendNANA
18:00 Legend Double Dagger 16.9 3.3 40 28 18 10.0 100.10     LegendNANA
19:00 Legend Double Dagger 16.2 3.0 41 31 14 10.0 100.15     Mostly Cloudy
20:00 Legend Double Dagger 13.9 3.1 48 34 9 10.0 100.17     LegendNANA
21:00 Legend Double Dagger 12.7 3.7 54 30 10 10.0 100.25     LegendNANA
22:00 Legend Double Dagger 10.9 4.0 62 32 10 10.0 100.28     Clear
23:00 Legend Double Dagger 10.6 4.3 65 32 10 10.0 100.30     LegendNANA

Notes on Data Quality.

Legend

  • E = Estimated
  • M = Missing
  • NA = Not Available
  • ‡ = Partner data that is not subject to review by the National Climate Archives
Date modified: